User: anonymous   Login
Location: Unspecified
(0.0000°N, 0.0000°E)
Time: 22:26:20
(UTC+00:00)
Language:

STARLINK-32848 - Orbit

View from above orbital plane
View from above orbital plane
View from above satellite
View from above satellite

Ground track
Ground track

The orbit is defined by the following mean orbital elements,

1 62808U          26144.85141402 +.00000000 +00000-0 +72285-3 0 00006
2 62808  53.1601 315.5128 0000660 105.4138 254.6937 15.31713687    09
Epoch (UTC): 24 May 2026 20:26:02
Eccentricity: 0.0000660
inclination: 53.1601°
perigee height: 470 km
apogee height: 471 km
right ascension of ascending node: 315.5128°
argument of perigee: 105.4138°
revolutions per day: 15.31713687
mean anomaly at epoch: 254.6937°

The dashed part of the orbit path shows where the satellite is in the earth's shadow,  

DLR